Vorticity
8 5 4 6 5 5 5 4 4 5 4 4 5 5 4 3 4 4 4 5 5 4 3 4 5 6 8 10 7 6 11 5 5 3 6 4 6 4 4 6 3 3 1
4 2 2 7 5 5 5 5 4 4 4 4 3 3 4 4 4 4 4 4 3 3 4 4 4 4 5 8 11 7 7 9 3 6 3 3 3 4 3 3 5 3 3
5 4 3 4 6 7 6 6 6 6 6 6 6 6 5 5 5 5 5 5 4 4 3 4 4 4 5 5 8 11 9 6 9 5 6 2 4 5 4 5 4 4 2
4 5 4 6 6 6 6 7 7 6 6 4 4 1 4 4 4 4 4 3 3 4 4 4 5 5 4 5 5 8 11 12 6 6 6 8 2 5 6 5 4 -0 3
2 3 2 6 5 4 3 4 4 4 2 3 3 5 6 6 4 3 3 3 3 2 2 4 4 5 5 4 5 5 7 10 10 9 5 5 7 -2 3 3 1 4 1
8 5 4 1 3 3 3 2 2 2 3 3 4 4 2 1 1 2 3 4 3 3 2 1 3 3 4 5 4 5 6 8 9 9 8 5 3 7 2 1 1 2 1
7 3 3 2 1 4 4 6 5 4 3 3 3 3 3 4 6 7 6 6 6 6 5 7 5 3 3 4 5 4 4 6 9 9 9 8 5 4 9 8 5 6 6
1 5 3 3 3 2 3 5 4 4 5 5 6 7 7 7 7 7 7 7 6 8 10 6 4 5 4 3 4 4 3 4 6 10 10 10 8 3 1 7 6 8 10
4 4 4 3 3 6 9 8 8 8 8 7 7 7 8 8 7 7 8 8 8 6 6 6 10 8 3 4 4 2 5 3 4 6 11 9 10 9 2 3 5 4 7
-1 3 2 3 7 6 6 6 6 6 6 6 5 5 5 5 5 5 5 5 6 7 7 7 6 7 5 6 5 4 3 4 5 4 6 12 10 12 3 -2 6 0 6
2 3 4 5 6 5 4 5 5 4 4 4 4 4 4 4 4 4 4 4 4 5 6 7 7 6 5 8 7 5 5 5 3 5 4 6 13 11 -1 1 4 8 2
2 3 3 3 3 4 4 4 4 4 4 4 3 3 3 3 3 3 3 4 4 4 4 4 5 6 7 6 6 7 7 7 6 3 5 5 7 15 5 -8 -3 4 7
5 4 4 4 4 4 4 4 4 3 3 3 2 2 2 3 3 3 3 3 3 3 4 4 4 4 5 6 7 6 6 7 7 7 4 6 4 7 16 9 5 -6 -2
5 5 5 5 5 5 5 4 4 4 4 4 4 4 4 3 3 3 3 4 4 5 5 4 3 4 4 4 5 6 7 6 7 7 8 2 6 4 6 16 11 8 -1
5 5 6 6 5 5 5 6 6 7 7 7 8 8 8 8 9 9 8 7 6 6 7 6 6 5 4 4 4 5 5 7 7 8 8 6 2 7 4 5 9 13 8
6 5 5 5 6 7 7 7 7 7 7 7 8 8 8 9 8 7 7 7 7 7 7 6 6 7 7 6 5 4 4 5 6 8 9 9 5 2 7 3 3 8 11
6 6 7 7 6 6 6 6 7 7 8 7 6 6 5 5 4 5 5 5 5 4 4 4 4 5 5 5 7 7 5 4 4 5 6 10 8 4 0 8 5 3 5
6 6 6 6 7 8 7 7 7 7 7 7 8 9 9 10 10 10 10 11 10 10 10 11 10 8 8 7 5 5 7 6 4 4 5 6 9 12 5 7 4 8 4
6 6 7 8 8 8 8 8 8 9 9 10 10 10 11 12 13 13 13 13 13 13 12 12 13 14 13 11 9 9 7 6 6 6 4 5 6 7 10 10 5 2 5
8 9 10 9 8 7 8 8 8 8 7 7 7 7 7 7 7 6 5 3 2 2 3 4 5 5 5 7 11 14 12 11 10 7 6 5 5 6 6 8 12 7 4
6 8 6 6 7 9 9 7 7 8 8 8 8 7 5 3 -1 -4 -3 0 3 6 6 6 5 4 1 3 6 5 5 11 15 14 10 7 6 5 5 5 7 10 7
7 5 6 8 10 8 4 4 7 7 2 0 -1 -2 -0 2 4 4 7 9 11 13 12 12 10 9 8 9 7 5 7 6 2 7 14 16 10 6 6 6 4 6 8
5 4 7 9 5 5 8 7 5 3 3 -1 -3 -1 1 3 7 9 11 12 12 12 14 15 16 15 14 12 12 13 14 7 6 2 3 8 14 16 8 6 6 5 5
2 4 5 5 6 7 4 1 0 -1 1 3 5 9 12 12 11 12 12 12 13 13 14 14 15 15 17 16 15 14 16 14 13 10 7 1 5 9 14 14 7 6 6
6 7 7 9 6 1 -1 0 2 5 8 9 11 10 9 10 12 13 12 14 14 14 14 12 11 13 16 19 17 14 12 14 13 18 12 9 6 4 7 8 13 11 7
6 9 7 1 1 4 2 8 8 5 10 10 8 10 11 12 12 12 12 13 14 13 13 13 14 14 12 9 13 15 16 15 13 16 19 14 14 7 4 5 8 12 11
Height
3176 3176 3178 3179 3179 3179 3179 3179 3179 3179 3180 3180 3180 3180 3180 3179 3178 3178 3178 3176 3175 3174 3172 3170 3169 3168 3167 3166 3166 3165 3166 3165 3165 3166 3167 3167 3167 3167 3168 3168 3168 3169 3169
3177 3178 3178 3180 3181 3181 3180 3180 3180 3180 3180 3180 3181 3180 3180 3179 3178 3178 3178 3176 3175 3174 3172 3171 3170 3168 3167 3166 3166 3166 3166 3166 3167 3166 3166 3168 3168 3168 3169 3170 3170 3170 3170
3177 3179 3179 3180 3180 3181 3181 3182 3181 3181 3181 3181 3180 3180 3179 3179 3178 3177 3177 3176 3175 3174 3173 3172 3170 3169 3168 3167 3166 3166 3165 3165 3166 3167 3167 3167 3168 3169 3170 3170 3170 3170 3170
3177 3178 3180 3181 3182 3182 3182 3182 3182 3182 3182 3182 3182 3181 3180 3180 3179 3178 3177 3176 3175 3174 3173 3172 3171 3170 3168 3167 3166 3165 3165 3165 3165 3165 3166 3168 3168 3168 3169 3170 3170 3170 3170
3177 3178 3180 3181 3182 3182 3182 3182 3183 3182 3182 3182 3182 3181 3181 3180 3179 3178 3177 3176 3174 3174 3173 3172 3171 3170 3168 3167 3166 3165 3164 3164 3164 3165 3165 3165 3168 3168 3168 3169 3169 3169 3170
3177 3179 3180 3181 3181 3181 3181 3181 3181 3181 3180 3180 3180 3179 3179 3178 3177 3177 3176 3175 3174 3173 3172 3171 3170 3169 3168 3167 3166 3165 3164 3163 3162 3163 3164 3164 3164 3166 3168 3168 3168 3169 3169
3176 3178 3178 3179 3180 3180 3180 3179 3179 3179 3178 3178 3177 3176 3176 3176 3175 3174 3173 3172 3172 3171 3170 3170 3169 3168 3167 3165 3165 3165 3164 3163 3162 3161 3162 3163 3163 3164 3166 3166 3167 3167 3168
3175 3176 3177 3178 3178 3179 3178 3178 3177 3176 3176 3175 3174 3173 3172 3172 3171 3171 3170 3170 3169 3168 3167 3167 3167 3166 3165 3164 3163 3163 3162 3162 3162 3160 3160 3160 3161 3163 3164 3164 3165 3166 3166
3175 3176 3177 3177 3178 3177 3177 3176 3176 3175 3175 3174 3173 3172 3171 3170 3169 3168 3167 3166 3165 3165 3164 3164 3164 3163 3163 3162 3162 3160 3161 3160 3159 3159 3158 3158 3158 3160 3161 3162 3163 3164 3163
3174 3175 3176 3176 3175 3175 3175 3174 3174 3173 3173 3172 3171 3170 3169 3168 3168 3167 3166 3165 3164 3163 3162 3161 3160 3159 3159 3159 3158 3158 3158 3158 3158 3157 3156 3156 3155 3156 3158 3159 3160 3161 3161
3171 3172 3173 3173 3173 3173 3173 3172 3171 3171 3170 3169 3169 3168 3167 3166 3166 3165 3164 3163 3162 3161 3160 3158 3157 3156 3155 3155 3155 3154 3154 3154 3154 3155 3155 3154 3153 3154 3155 3156 3156 3157 3158
3168 3169 3169 3169 3169 3169 3169 3168 3168 3167 3166 3166 3165 3164 3163 3163 3162 3161 3161 3160 3159 3158 3157 3156 3154 3153 3151 3150 3150 3150 3150 3149 3149 3150 3151 3151 3151 3151 3151 3152 3153 3154 3155
3166 3167 3167 3166 3166 3166 3166 3165 3164 3164 3163 3162 3161 3160 3159 3158 3157 3156 3155 3154 3154 3153 3153 3151 3150 3150 3149 3147 3145 3144 3144 3144 3144 3144 3146 3146 3147 3147 3148 3149 3149 3150 3151
3164 3164 3164 3164 3164 3163 3162 3162 3161 3159 3158 3157 3156 3154 3153 3151 3150 3148 3148 3147 3146 3146 3145 3145 3145 3144 3143 3142 3142 3141 3139 3138 3137 3138 3139 3140 3141 3142 3143 3143 3144 3144 3145
3160 3161 3161 3160 3159 3158 3157 3156 3155 3155 3154 3152 3150 3148 3147 3145 3143 3142 3141 3139 3138 3138 3138 3137 3137 3136 3136 3136 3134 3135 3135 3133 3132 3131 3131 3133 3134 3135 3136 3137 3138 3138 3140
3157 3156 3155 3155 3154 3153 3152 3150 3149 3148 3147 3146 3145 3144 3142 3140 3139 3137 3135 3134 3132 3130 3129 3128 3128 3128 3127 3126 3127 3126 3126 3127 3126 3125 3125 3125 3126 3127 3129 3130 3131 3132 3133
3151 3150 3150 3149 3148 3147 3146 3145 3144 3143 3141 3140 3138 3137 3135 3133 3131 3129 3128 3126 3124 3122 3120 3119 3118 3117 3117 3116 3116 3117 3117 3117 3118 3118 3118 3119 3118 3119 3121 3122 3123 3124 3126
3146 3145 3144 3143 3142 3141 3141 3140 3138 3137 3135 3133 3132 3130 3127 3125 3123 3121 3119 3117 3115 3112 3110 3109 3107 3107 3105 3104 3105 3106 3106 3107 3108 3109 3109 3110 3111 3111 3112 3114 3115 3116 3117
3141 3140 3139 3138 3138 3137 3136 3134 3132 3130 3129 3126 3124 3122 3119 3117 3114 3112 3110 3107 3106 3104 3101 3098 3097 3094 3094 3093 3092 3093 3094 3095 3096 3097 3099 3100 3101 3102 3103 3105 3105 3107 3108
3136 3135 3135 3134 3132 3130 3128 3127 3125 3123 3120 3118 3115 3112 3110 3107 3106 3104 3102 3099 3097 3095 3093 3089 3087 3085 3081 3079 3079 3080 3081 3082 3083 3085 3087 3088 3090 3091 3092 3093 3095 3096 3098
3131 3130 3128 3127 3125 3124 3122 3121 3118 3116 3113 3110 3108 3106 3104 3101 3099 3096 3092 3090 3086 3083 3081 3078 3075 3073 3072 3067 3063 3065 3066 3068 3069 3071 3073 3074 3076 3078 3078 3080 3082 3085 3088
3124 3123 3122 3121 3119 3118 3116 3114 3113 3111 3109 3105 3103 3100 3096 3093 3089 3084 3080 3077 3074 3071 3068 3064 3060 3057 3056 3055 3049 3048 3046 3054 3055 3056 3057 3059 3061 3063 3066 3068 3070 3072 3075
3118 3117 3116 3114 3114 3112 3110 3108 3105 3103 3101 3099 3095 3092 3087 3082 3077 3072 3067 3061 3058 3054 3050 3048 3045 3041 3039 3039 3036 3033 3030 3028 3032 3041 3043 3043 3045 3048 3050 3053 3056 3059 3061
3113 3112 3110 3110 3108 3106 3104 3101 3098 3093 3089 3088 3082 3078 3075 3070 3064 3058 3052 3047 3043 3039 3035 3031 3028 3024 3022 3020 3021 3019 3015 3012 3010 3012 3022 3029 3029 3031 3034 3037 3041 3044 3048
3108 3107 3106 3103 3101 3099 3095 3091 3087 3084 3079 3074 3070 3065 3062 3057 3051 3045 3039 3034 3029 3025 3021 3017 3013 3009 3006 3004 3003 3002 3001 2999 2997 2992 2990 3001 3012 3014 3017 3021 3024 3029 3034
3104 3102 3100 3098 3095 3092 3088 3083 3079 3074 3068 3063 3058 3052 3047 3041 3036 3032 3026 3022 3017 3012 3007 3004 3000 2995 2993 2989 2986 2984 2984 2983 2981 2980 2974 2975 2980 2995 2999 3003 3008 3012 3017